• In Latvia
  • List of Countries
  • For 7 days
  • Water Temperature
  • Satellite Maps
  • Weather Map
  • Weather Widgets
  • user-avatar
    Login

    Hourly Weather Darwin

    Today, 16 December, Saturday

    Time Temperature Precipitation Wind Pressure Humidity
    00:00 +31°C° 0.1 mm 1 mps 756 mmHg 69%
    01:00 +31°C° 0.1 mm 1 mps 756 mmHg 70%
    02:00 +31°C° 0.1 mm 1 mps 755 mmHg 70%
    03:00 +28°C° 0 mm 0 mps 755 mmHg 70%
    04:00 +28°C° 0 mm 0 mps 756 mmHg 71%
    05:00 +30°C° 0 mm 1 mps 756 mmHg 72%
    06:00 +30°C° 0 mm 1 mps 756 mmHg 72%
    07:00 +32°C° 0 mm 1 mps 756 mmHg 65%
    08:00 +34°C° 0 mm 1 mps 757 mmHg 59%
    09:00 +34°C° 0 mm 0 mps 757 mmHg 51%
    10:00 +37°C° 0.1 mm 1 mps 757 mmHg 48%
    11:00 +39°C° 0.1 mm 1 mps 756 mmHg 45%
    12:00 +40°C° 0.1 mm 2 mps 756 mmHg 42%
    13:00 +39°C° 0 mm 2 mps 755 mmHg 44%
    14:00 +38°C° 0 mm 2 mps 755 mmHg 47%
    15:00 +37°C° 0 mm 2 mps 755 mmHg 51%
    16:00 +36°C° 0 mm 2 mps 754 mmHg 53%
    17:00 +36°C° 0 mm 2 mps 754 mmHg 55%
    18:00 +35°C° 0 mm 2 mps 754 mmHg 58%
    19:00 +34°C° 0.2 mm 2 mps 755 mmHg 61%
    20:00 +32°C° 0.2 mm 2 mps 755 mmHg 64%
    21:00 +33°C° 0 mm 3 mps 756 mmHg 66%
    22:00 +31°C° 0 mm 3 mps 756 mmHg 68%
    23:00 +31°C° 0 mm 3 mps 756 mmHg 69%

    Tomorrow, 17 December, Sunday

    Time Temperature Precipitation Wind Pressure Humidity
    00:00 +31°C° 0 mm 3 mps 756 mmHg 71%
    01:00 +31°C° 0.1 mm 2 mps 756 mmHg 73%
    02:00 +30°C° 0.1 mm 2 mps 756 mmHg 74%
    03:00 +30°C° 0.1 mm 2 mps 756 mmHg 76%
    04:00 +30°C° 1.1 mm 2 mps 756 mmHg 78%
    05:00 +29°C° 1.1 mm 2 mps 756 mmHg 81%
    06:00 +29°C° 1.1 mm 2 mps 756 mmHg 83%
    07:00 +31°C° 0 mm 2 mps 756 mmHg 75%
    08:00 +32°C° 0 mm 2 mps 756 mmHg 68%
    09:00 +35°C° 0 mm 2 mps 756 mmHg 61%
    10:00 +36°C° 0.1 mm 2 mps 756 mmHg 56%
    11:00 +37°C° 0.1 mm 2 mps 756 mmHg 52%
    12:00 +38°C° 0.1 mm 2 mps 756 mmHg 47%
    13:00 +38°C° 0.1 mm 3 mps 755 mmHg 48%
    14:00 +38°C° 0.1 mm 3 mps 755 mmHg 50%
    15:00 +37°C° 0.1 mm 4 mps 754 mmHg 51%
    16:00 +36°C° 0.4 mm 4 mps 754 mmHg 56%
    17:00 +35°C° 0.4 mm 5 mps 754 mmHg 62%
    18:00 +34°C° 0.4 mm 5 mps 753 mmHg 68%
    19:00 +33°C° 4.4 mm 4 mps 754 mmHg 75%
    20:00 +32°C° 4.4 mm 4 mps 755 mmHg 81%
    21:00 +29°C° 4.4 mm 3 mps 755 mmHg 88%
    22:00 +29°C° 3.7 mm 2 mps 755 mmHg 89%
    23:00 +29°C° 3.7 mm 2 mps 755 mmHg 89%

    Day after tomorrow, 18 December, Monday

    Time Temperature Precipitation Wind Pressure Humidity
    00:00 +29°C° 3.7 mm 2 mps 756 mmHg 90%
    01:00 +28°C° 2.8 mm 2 mps 755 mmHg 90%
    02:00 +28°C° 2.8 mm 3 mps 755 mmHg 90%
    03:00 +28°C° 2.8 mm 3 mps 755 mmHg 90%
    04:00 +28°C° 0.1 mm 3 mps 755 mmHg 90%
    05:00 +28°C° 0.1 mm 3 mps 755 mmHg 89%
    06:00 +28°C° 0.1 mm 2 mps 755 mmHg 88%
    07:00 +29°C° 0 mm 3 mps 756 mmHg 83%
    08:00 +30°C° 0 mm 3 mps 756 mmHg 78%
    09:00 +33°C° 0 mm 3 mps 756 mmHg 72%
    10:00 +33°C° 0.1 mm 3 mps 756 mmHg 69%
    11:00 +34°C° 0.1 mm 4 mps 756 mmHg 66%
    12:00 +35°C° 0.1 mm 4 mps 755 mmHg 63%
    13:00 +35°C° 0.6 mm 4 mps 755 mmHg 63%
    14:00 +35°C° 0.6 mm 3 mps 754 mmHg 63%
    15:00 +35°C° 0.6 mm 3 mps 754 mmHg 64%
    16:00 +34°C° 0.9 mm 2 mps 754 mmHg 67%
    17:00 +34°C° 0.9 mm 2 mps 754 mmHg 70%
    18:00 +32°C° 0.9 mm 1 mps 754 mmHg 73%
    19:00 +31°C° 0.1 mm 1 mps 755 mmHg 76%
    20:00 +30°C° 0.1 mm 1 mps 755 mmHg 78%
    21:00 +30°C° 0.1 mm 2 mps 756 mmHg 81%
    22:00 +30°C° 0 mm 2 mps 756 mmHg 81%
    23:00 +29°C° 0 mm 2 mps 756 mmHg 81%

    19 December, Tuesday

    Time Temperature Precipitation Wind Pressure Humidity
    00:00 +29°C° 0 mm 2 mps 756 mmHg 81%
    01:00 +29°C° 0 mm 2 mps 755 mmHg 82%
    02:00 +29°C° 0 mm 2 mps 755 mmHg 82%
    03:00 +29°C° 0 mm 2 mps 754 mmHg 82%
    04:00 +29°C° 0.2 mm 2 mps 755 mmHg 82%
    05:00 +29°C° 0.2 mm 2 mps 755 mmHg 82%
    06:00 +29°C° 0.2 mm 2 mps 755 mmHg 82%
    07:00 +30°C° 0 mm 2 mps 755 mmHg 76%
    08:00 +32°C° 0 mm 2 mps 756 mmHg 69%
    09:00 +34°C° 0 mm 2 mps 756 mmHg 62%
    10:00 +35°C° 0.1 mm 2 mps 756 mmHg 58%
    11:00 +36°C° 0.1 mm 2 mps 756 mmHg 54%
    12:00 +37°C° 0.1 mm 2 mps 755 mmHg 50%
    13:00 +37°C° 0.3 mm 2 mps 755 mmHg 50%
    14:00 +37°C° 0.3 mm 3 mps 754 mmHg 49%
    15:00 +37°C° 0.3 mm 3 mps 754 mmHg 49%
    16:00 +36°C° 0.1 mm 3 mps 754 mmHg 53%
    17:00 +35°C° 0.1 mm 3 mps 754 mmHg 57%
    18:00 +34°C° 0.1 mm 3 mps 754 mmHg 60%
    19:00 +34°C° 0 mm 3 mps 754 mmHg 64%
    20:00 +33°C° 0 mm 3 mps 755 mmHg 68%
    21:00 +31°C° 0 mm 3 mps 756 mmHg 72%
    22:00 +31°C° 0 mm 3 mps 756 mmHg 74%
    23:00 +30°C° 0 mm 3 mps 756 mmHg 75%

    20 December, Wednesday

    Time Temperature Precipitation Wind Pressure Humidity
    00:00 +30°C° 0 mm 2 mps 756 mmHg 76%
    01:00 +30°C° 0.1 mm 2 mps 755 mmHg 77%
    02:00 +30°C° 0.1 mm 2 mps 755 mmHg 78%
    03:00 +29°C° 0.1 mm 2 mps 754 mmHg 79%
    04:00 +29°C° 0 mm 2 mps 755 mmHg 80%
    05:00 +29°C° 0 mm 2 mps 755 mmHg 80%
    06:00 +29°C° 0 mm 2 mps 755 mmHg 81%
    07:00 +31°C° 0.1 mm 1 mps 756 mmHg 74%
    08:00 +32°C° 0.1 mm 1 mps 756 mmHg 67%
    09:00 +34°C° 0.1 mm 1 mps 757 mmHg 61%
    10:00 +36°C° 0 mm 2 mps 756 mmHg 57%
    11:00 +37°C° 0 mm 2 mps 756 mmHg 53%
    12:00 +38°C° 0 mm 2 mps 756 mmHg 49%
    13:00 +38°C° 0.4 mm 3 mps 755 mmHg 50%
    14:00 +37°C° 0.4 mm 3 mps 755 mmHg 52%
    15:00 +37°C° 0.4 mm 3 mps 754 mmHg 53%
    16:00 +36°C° 0.3 mm 3 mps 754 mmHg 56%
    17:00 +35°C° 0.3 mm 2 mps 754 mmHg 60%
    18:00 +34°C° 0.3 mm 2 mps 754 mmHg 63%
    19:00 +34°C° 0 mm 2 mps 755 mmHg 66%
    20:00 +33°C° 0 mm 3 mps 755 mmHg 69%
    21:00 +31°C° 0 mm 3 mps 755 mmHg 72%
    22:00 +31°C° 0.1 mm 2 mps 755 mmHg 73%
    23:00 +30°C° 0.1 mm 2 mps 756 mmHg 75%

    21 December, Thursday

    Time Temperature Precipitation Wind Pressure Humidity
    00:00 +30°C° 0.1 mm 2 mps 756 mmHg 76%
    01:00 +30°C° 0 mm 2 mps 756 mmHg 77%
    02:00 +30°C° 0 mm 2 mps 755 mmHg 78%
    03:00 +30°C° 0 mm 3 mps 755 mmHg 78%
    04:00 +30°C° 0 mm 2 mps 755 mmHg 79%
    05:00 +29°C° 0 mm 2 mps 755 mmHg 81%
    06:00 +29°C° 0 mm 2 mps 755 mmHg 82%
    07:00 +30°C° 0 mm 2 mps 756 mmHg 77%
    08:00 +31°C° 0 mm 2 mps 756 mmHg 73%
    09:00 +33°C° 0 mm 3 mps 757 mmHg 69%
    10:00 +35°C° 0.1 mm 3 mps 756 mmHg 60%
    11:00 +36°C° 0.1 mm 3 mps 756 mmHg 52%
    12:00 +38°C° 0.1 mm 2 mps 755 mmHg 44%
    13:00 +38°C° 0 mm 2 mps 755 mmHg 44%
    14:00 +38°C° 0 mm 2 mps 754 mmHg 45%
    15:00 +37°C° 0 mm 1 mps 753 mmHg 45%
    16:00 +37°C° 0 mm 2 mps 753 mmHg 49%
    17:00 +37°C° 0 mm 2 mps 753 mmHg 52%
    18:00 +36°C° 0 mm 3 mps 753 mmHg 56%
    19:00 +35°C° 0 mm 3 mps 754 mmHg 61%
    20:00 +34°C° 0 mm 3 mps 754 mmHg 65%
    21:00 +33°C° 0 mm 3 mps 755 mmHg 70%
    22:00 +31°C° 1.4 mm 3 mps 754 mmHg 73%
    23:00 +30°C° 1.4 mm 3 mps 754 mmHg 76%
    Show more